Index of /20260507/WXO-DD/model_caps/3km/00/006
Name Last modified Size Description
Parent Directory -
20260507T00Z_MSC_CAPS_AbsoluteVorticity_IsbL-0250_RLatLon0.03_PT006H.grib2 2026-05-07 06:07 1.1M
20260507T00Z_MSC_CAPS_AbsoluteVorticity_IsbL-0500_RLatLon0.03_PT006H.grib2 2026-05-07 06:07 1.1M
20260507T00Z_MSC_CAPS_AbsoluteVorticity_IsbL-0700_RLatLon0.03_PT006H.grib2 2026-05-07 06:07 1.2M
20260507T00Z_MSC_CAPS_AbsoluteVorticity_IsbL-0850_RLatLon0.03_PT006H.grib2 2026-05-07 06:07 1.2M
20260507T00Z_MSC_CAPS_AbsoluteVorticity_IsbL-1000_RLatLon0.03_PT006H.grib2 2026-05-07 06:07 1.3M
20260507T00Z_MSC_CAPS_AirDensity_AGL-120m_RLatLon0.03_PT006H.grib2 2026-05-07 06:07 1.4M
20260507T00Z_MSC_CAPS_AirDensity_AGL-40m_RLatLon0.03_PT006H.grib2 2026-05-07 06:07 1.4M
20260507T00Z_MSC_CAPS_AirDensity_AGL-80m_RLatLon0.03_PT006H.grib2 2026-05-07 06:07 1.4M
20260507T00Z_MSC_CAPS_AirTemp_AGL-120m_RLatLon0.03_PT006H.grib2 2026-05-07 06:07 1.8M
20260507T00Z_MSC_CAPS_AirTemp_AGL-2m_RLatLon0.03_PT006H.grib2 2026-05-07 06:07 1.8M
20260507T00Z_MSC_CAPS_AirTemp_AGL-40m_RLatLon0.03_PT006H.grib2 2026-05-07 06:07 1.5M
20260507T00Z_MSC_CAPS_AirTemp_AGL-80m_RLatLon0.03_PT006H.grib2 2026-05-07 06:07 1.4M
20260507T00Z_MSC_CAPS_AirTemp_IsbL-0050_RLatLon0.03_PT006H.grib2 2026-05-07 06:07 688K
20260507T00Z_MSC_CAPS_AirTemp_IsbL-0100_RLatLon0.03_PT006H.grib2 2026-05-07 06:07 782K
20260507T00Z_MSC_CAPS_AirTemp_IsbL-0150_RLatLon0.03_PT006H.grib2 2026-05-07 06:07 745K
20260507T00Z_MSC_CAPS_AirTemp_IsbL-0175_RLatLon0.03_PT006H.grib2 2026-05-07 06:07 775K
20260507T00Z_MSC_CAPS_AirTemp_IsbL-0200_RLatLon0.03_PT006H.grib2 2026-05-07 06:07 801K
20260507T00Z_MSC_CAPS_AirTemp_IsbL-0225_RLatLon0.03_PT006H.grib2 2026-05-07 06:07 800K
20260507T00Z_MSC_CAPS_AirTemp_IsbL-0250_RLatLon0.03_PT006H.grib2 2026-05-07 06:07 1.0M
20260507T00Z_MSC_CAPS_AirTemp_IsbL-0275_RLatLon0.03_PT006H.grib2 2026-05-07 06:07 1.0M
20260507T00Z_MSC_CAPS_AirTemp_IsbL-0300_RLatLon0.03_PT006H.grib2 2026-05-07 06:07 1.0M
20260507T00Z_MSC_CAPS_AirTemp_IsbL-0350_RLatLon0.03_PT006H.grib2 2026-05-07 06:07 755K
20260507T00Z_MSC_CAPS_AirTemp_IsbL-0400_RLatLon0.03_PT006H.grib2 2026-05-07 06:07 757K
20260507T00Z_MSC_CAPS_AirTemp_IsbL-0450_RLatLon0.03_PT006H.grib2 2026-05-07 06:07 770K
20260507T00Z_MSC_CAPS_AirTemp_IsbL-0500_RLatLon0.03_PT006H.grib2 2026-05-07 06:07 782K
20260507T00Z_MSC_CAPS_AirTemp_IsbL-0550_RLatLon0.03_PT006H.grib2 2026-05-07 06:07 795K
20260507T00Z_MSC_CAPS_AirTemp_IsbL-0600_RLatLon0.03_PT006H.grib2 2026-05-07 06:07 811K
20260507T00Z_MSC_CAPS_AirTemp_IsbL-0650_RLatLon0.03_PT006H.grib2 2026-05-07 06:07 838K
20260507T00Z_MSC_CAPS_AirTemp_IsbL-0700_RLatLon0.03_PT006H.grib2 2026-05-07 06:07 876K
20260507T00Z_MSC_CAPS_AirTemp_IsbL-0750_RLatLon0.03_PT006H.grib2 2026-05-07 06:07 909K
20260507T00Z_MSC_CAPS_AirTemp_IsbL-0800_RLatLon0.03_PT006H.grib2 2026-05-07 06:07 1.1M
20260507T00Z_MSC_CAPS_AirTemp_IsbL-0850_RLatLon0.03_PT006H.grib2 2026-05-07 06:07 1.1M
20260507T00Z_MSC_CAPS_AirTemp_IsbL-0875_RLatLon0.03_PT006H.grib2 2026-05-07 06:07 1.1M
20260507T00Z_MSC_CAPS_AirTemp_IsbL-0900_RLatLon0.03_PT006H.grib2 2026-05-07 06:07 1.1M
20260507T00Z_MSC_CAPS_AirTemp_IsbL-0925_RLatLon0.03_PT006H.grib2 2026-05-07 06:07 1.1M
20260507T00Z_MSC_CAPS_AirTemp_IsbL-0950_RLatLon0.03_PT006H.grib2 2026-05-07 06:07 1.1M
20260507T00Z_MSC_CAPS_AirTemp_IsbL-0970_RLatLon0.03_PT006H.grib2 2026-05-07 06:07 1.1M
20260507T00Z_MSC_CAPS_AirTemp_IsbL-0985_RLatLon0.03_PT006H.grib2 2026-05-07 06:07 1.1M
20260507T00Z_MSC_CAPS_AirTemp_IsbL-1000_RLatLon0.03_PT006H.grib2 2026-05-07 06:07 1.0M
20260507T00Z_MSC_CAPS_AirTemp_IsbL-1015_RLatLon0.03_PT006H.grib2 2026-05-07 06:07 1.1M
20260507T00Z_MSC_CAPS_Albedo_Sfc_RLatLon0.03_PT006H.grib2 2026-05-07 06:07 2.7M
20260507T00Z_MSC_CAPS_CAPE_Sfc_RLatLon0.03_PT006H.grib2 2026-05-07 06:07 220K
20260507T00Z_MSC_CAPS_CloudWater_EAtm_RLatLon0.03_PT006H.grib2 2026-05-07 06:07 1.4M
20260507T00Z_MSC_CAPS_ConvectivePrecip-Accum_Sfc_RLatLon0.03_PT006H.grib2 2026-05-07 06:07 2.1M
20260507T00Z_MSC_CAPS_DewPointDepression_AGL-120m_RLatLon0.03_PT006H.grib2 2026-05-07 06:07 2.1M
20260507T00Z_MSC_CAPS_DewPointDepression_AGL-2m_RLatLon0.03_PT006H.grib2 2026-05-07 06:07 2.2M
20260507T00Z_MSC_CAPS_DewPointDepression_AGL-40m_RLatLon0.03_PT006H.grib2 2026-05-07 06:07 2.1M
20260507T00Z_MSC_CAPS_DewPointDepression_AGL-80m_RLatLon0.03_PT006H.grib2 2026-05-07 06:07 2.1M
20260507T00Z_MSC_CAPS_DewPointDepression_IsbL-0050_RLatLon0.03_PT006H.grib2 2026-05-07 06:07 2.5K
20260507T00Z_MSC_CAPS_DewPointDepression_IsbL-0100_RLatLon0.03_PT006H.grib2 2026-05-07 06:07 53K
20260507T00Z_MSC_CAPS_DewPointDepression_IsbL-0150_RLatLon0.03_PT006H.grib2 2026-05-07 06:07 53K
20260507T00Z_MSC_CAPS_DewPointDepression_IsbL-0175_RLatLon0.03_PT006H.grib2 2026-05-07 06:07 193K
20260507T00Z_MSC_CAPS_DewPointDepression_IsbL-0200_RLatLon0.03_PT006H.grib2 2026-05-07 06:07 392K
20260507T00Z_MSC_CAPS_DewPointDepression_IsbL-0225_RLatLon0.03_PT006H.grib2 2026-05-07 06:07 576K
20260507T00Z_MSC_CAPS_DewPointDepression_IsbL-0250_RLatLon0.03_PT006H.grib2 2026-05-07 06:07 801K
20260507T00Z_MSC_CAPS_DewPointDepression_IsbL-0275_RLatLon0.03_PT006H.grib2 2026-05-07 06:07 937K
20260507T00Z_MSC_CAPS_DewPointDepression_IsbL-0300_RLatLon0.03_PT006H.grib2 2026-05-07 06:07 1.0M
20260507T00Z_MSC_CAPS_DewPointDepression_IsbL-0350_RLatLon0.03_PT006H.grib2 2026-05-07 06:07 1.0M
20260507T00Z_MSC_CAPS_DewPointDepression_IsbL-0400_RLatLon0.03_PT006H.grib2 2026-05-07 06:07 1.1M
20260507T00Z_MSC_CAPS_DewPointDepression_IsbL-0450_RLatLon0.03_PT006H.grib2 2026-05-07 06:07 1.1M
20260507T00Z_MSC_CAPS_DewPointDepression_IsbL-0500_RLatLon0.03_PT006H.grib2 2026-05-07 06:07 1.1M
20260507T00Z_MSC_CAPS_DewPointDepression_IsbL-0550_RLatLon0.03_PT006H.grib2 2026-05-07 06:07 1.1M
20260507T00Z_MSC_CAPS_DewPointDepression_IsbL-0600_RLatLon0.03_PT006H.grib2 2026-05-07 06:07 1.2M
20260507T00Z_MSC_CAPS_DewPointDepression_IsbL-0650_RLatLon0.03_PT006H.grib2 2026-05-07 06:07 1.2M
20260507T00Z_MSC_CAPS_DewPointDepression_IsbL-0700_RLatLon0.03_PT006H.grib2 2026-05-07 06:07 1.2M
20260507T00Z_MSC_CAPS_DewPointDepression_IsbL-0750_RLatLon0.03_PT006H.grib2 2026-05-07 06:07 1.3M
20260507T00Z_MSC_CAPS_DewPointDepression_IsbL-0800_RLatLon0.03_PT006H.grib2 2026-05-07 06:07 1.3M
20260507T00Z_MSC_CAPS_DewPointDepression_IsbL-0850_RLatLon0.03_PT006H.grib2 2026-05-07 06:07 1.3M
20260507T00Z_MSC_CAPS_DewPointDepression_IsbL-0875_RLatLon0.03_PT006H.grib2 2026-05-07 06:07 1.4M
20260507T00Z_MSC_CAPS_DewPointDepression_IsbL-0900_RLatLon0.03_PT006H.grib2 2026-05-07 06:07 1.4M
20260507T00Z_MSC_CAPS_DewPointDepression_IsbL-0925_RLatLon0.03_PT006H.grib2 2026-05-07 06:07 1.4M
20260507T00Z_MSC_CAPS_DewPointDepression_IsbL-0950_RLatLon0.03_PT006H.grib2 2026-05-07 06:07 1.4M
20260507T00Z_MSC_CAPS_DewPointDepression_IsbL-0970_RLatLon0.03_PT006H.grib2 2026-05-07 06:07 1.4M
20260507T00Z_MSC_CAPS_DewPointDepression_IsbL-0985_RLatLon0.03_PT006H.grib2 2026-05-07 06:07 1.4M
20260507T00Z_MSC_CAPS_DewPointDepression_IsbL-1000_RLatLon0.03_PT006H.grib2 2026-05-07 06:07 1.4M
20260507T00Z_MSC_CAPS_DewPointDepression_IsbL-1015_RLatLon0.03_PT006H.grib2 2026-05-07 06:07 1.4M
20260507T00Z_MSC_CAPS_DewPoint_AGL-120m_RLatLon0.03_PT006H.grib2 2026-05-07 06:07 3.6M
20260507T00Z_MSC_CAPS_DewPoint_AGL-2m_RLatLon0.03_PT006H.grib2 2026-05-07 06:07 1.8M
20260507T00Z_MSC_CAPS_DewPoint_AGL-40m_RLatLon0.03_PT006H.grib2 2026-05-07 06:07 3.7M
20260507T00Z_MSC_CAPS_DewPoint_AGL-80m_RLatLon0.03_PT006H.grib2 2026-05-07 06:07 3.6M
20260507T00Z_MSC_CAPS_DownwardLongwaveRadiationFlux-Accum_Sfc_RLatLon0.03_PT006H.grib2 2026-05-07 06:07 2.5M
20260507T00Z_MSC_CAPS_DownwardShortwaveRadiationFlux-Accum_NTAtm_RLatLon0.03_PT006H.grib2 2026-05-07 06:07 335K
20260507T00Z_MSC_CAPS_DownwardShortwaveRadiationFlux-Accum_Sfc_RLatLon0.03_PT006H.grib2 2026-05-07 06:07 1.8M
20260507T00Z_MSC_CAPS_FreezingRain-Accum_Sfc_RLatLon0.03_PT006H.grib2 2026-05-07 06:07 204K
20260507T00Z_MSC_CAPS_GeopotentialHeight_IsbL-0050_RLatLon0.03_PT006H.grib2 2026-05-07 06:07 622K
20260507T00Z_MSC_CAPS_GeopotentialHeight_IsbL-0100_RLatLon0.03_PT006H.grib2 2026-05-07 06:07 737K
20260507T00Z_MSC_CAPS_GeopotentialHeight_IsbL-0150_RLatLon0.03_PT006H.grib2 2026-05-07 06:07 604K
20260507T00Z_MSC_CAPS_GeopotentialHeight_IsbL-0175_RLatLon0.03_PT006H.grib2 2026-05-07 06:07 722K
20260507T00Z_MSC_CAPS_GeopotentialHeight_IsbL-0200_RLatLon0.03_PT006H.grib2 2026-05-07 06:07 743K
20260507T00Z_MSC_CAPS_GeopotentialHeight_IsbL-0225_RLatLon0.03_PT006H.grib2 2026-05-07 06:07 755K
20260507T00Z_MSC_CAPS_GeopotentialHeight_IsbL-0250_RLatLon0.03_PT006H.grib2 2026-05-07 06:07 763K
20260507T00Z_MSC_CAPS_GeopotentialHeight_IsbL-0275_RLatLon0.03_PT006H.grib2 2026-05-07 06:07 772K
20260507T00Z_MSC_CAPS_GeopotentialHeight_IsbL-0300_RLatLon0.03_PT006H.grib2 2026-05-07 06:07 777K
20260507T00Z_MSC_CAPS_GeopotentialHeight_IsbL-0350_RLatLon0.03_PT006H.grib2 2026-05-07 06:07 777K
20260507T00Z_MSC_CAPS_GeopotentialHeight_IsbL-0400_RLatLon0.03_PT006H.grib2 2026-05-07 06:07 774K
20260507T00Z_MSC_CAPS_GeopotentialHeight_IsbL-0450_RLatLon0.03_PT006H.grib2 2026-05-07 06:07 766K
20260507T00Z_MSC_CAPS_GeopotentialHeight_IsbL-0500_RLatLon0.03_PT006H.grib2 2026-05-07 06:07 756K
20260507T00Z_MSC_CAPS_GeopotentialHeight_IsbL-0550_RLatLon0.03_PT006H.grib2 2026-05-07 06:07 636K
20260507T00Z_MSC_CAPS_GeopotentialHeight_IsbL-0600_RLatLon0.03_PT006H.grib2 2026-05-07 06:07 633K
20260507T00Z_MSC_CAPS_GeopotentialHeight_IsbL-0650_RLatLon0.03_PT006H.grib2 2026-05-07 06:07 807K
20260507T00Z_MSC_CAPS_GeopotentialHeight_IsbL-0700_RLatLon0.03_PT006H.grib2 2026-05-07 06:07 807K
20260507T00Z_MSC_CAPS_GeopotentialHeight_IsbL-0750_RLatLon0.03_PT006H.grib2 2026-05-07 06:07 808K
20260507T00Z_MSC_CAPS_GeopotentialHeight_IsbL-0800_RLatLon0.03_PT006H.grib2 2026-05-07 06:07 890K
20260507T00Z_MSC_CAPS_GeopotentialHeight_IsbL-0850_RLatLon0.03_PT006H.grib2 2026-05-07 06:07 894K
20260507T00Z_MSC_CAPS_GeopotentialHeight_IsbL-0875_RLatLon0.03_PT006H.grib2 2026-05-07 06:07 899K
20260507T00Z_MSC_CAPS_GeopotentialHeight_IsbL-0900_RLatLon0.03_PT006H.grib2 2026-05-07 06:07 906K
20260507T00Z_MSC_CAPS_GeopotentialHeight_IsbL-0925_RLatLon0.03_PT006H.grib2 2026-05-07 06:07 915K
20260507T00Z_MSC_CAPS_GeopotentialHeight_IsbL-0950_RLatLon0.03_PT006H.grib2 2026-05-07 06:07 838K
20260507T00Z_MSC_CAPS_GeopotentialHeight_IsbL-0970_RLatLon0.03_PT006H.grib2 2026-05-07 06:07 847K
20260507T00Z_MSC_CAPS_GeopotentialHeight_IsbL-0985_RLatLon0.03_PT006H.grib2 2026-05-07 06:07 861K
20260507T00Z_MSC_CAPS_GeopotentialHeight_IsbL-1000_RLatLon0.03_PT006H.grib2 2026-05-07 06:07 872K
20260507T00Z_MSC_CAPS_GeopotentialHeight_IsbL-1015_RLatLon0.03_PT006H.grib2 2026-05-07 06:07 883K
20260507T00Z_MSC_CAPS_GeopotentialHeight_Sfc_RLatLon0.03_PT006H.grib2 2026-05-07 06:07 1.0M
20260507T00Z_MSC_CAPS_IcePellets-Accum_Sfc_RLatLon0.03_PT006H.grib2 2026-05-07 06:07 3.4K
20260507T00Z_MSC_CAPS_LatentHeatNetFlux_Sfc_RLatLon0.03_PT006H.grib2 2026-05-07 06:07 1.8M
20260507T00Z_MSC_CAPS_LiftedIndex-MU-VT_IsbL-0500_RLatLon0.03_PT006H.grib2 2026-05-07 06:07 3.3M
20260507T00Z_MSC_CAPS_MixedLayerThickness_Sfc_RLatLon0.03_PT006H.nc 2026-05-07 06:12 16M
20260507T00Z_MSC_CAPS_NetLongwaveRadiationFlux-Accum_Sfc_RLatLon0.03_PT006H.grib2 2026-05-07 06:07 2.8M
20260507T00Z_MSC_CAPS_NetShortwaveRadiationFlux-Accum_Sfc_RLatLon0.03_PT006H.grib2 2026-05-07 06:07 2.2M
20260507T00Z_MSC_CAPS_PlanetaryBoundaryLayerHeight_Sfc_RLatLon0.03_PT006H.grib2 2026-05-07 06:07 2.9M
20260507T00Z_MSC_CAPS_Precip-Accum_Sfc_RLatLon0.03_PT006H.grib2 2026-05-07 06:07 3.2M
20260507T00Z_MSC_CAPS_PrecipRate_Sfc_RLatLon0.03_PT006H.grib2 2026-05-07 06:07 452K
20260507T00Z_MSC_CAPS_PrecipType-Instant_Sfc_RLatLon0.03_PT006H.grib2 2026-05-07 06:07 1.7M
20260507T00Z_MSC_CAPS_Pressure_MSL_RLatLon0.03_PT006H.grib2 2026-05-07 06:07 760K
20260507T00Z_MSC_CAPS_Pressure_Sfc_RLatLon0.03_PT006H.grib2 2026-05-07 06:07 1.2M
20260507T00Z_MSC_CAPS_RadiativeTemp_Sfc_RLatLon0.03_PT006H.grib2 2026-05-07 06:07 2.1M
20260507T00Z_MSC_CAPS_Rain-Accum_Sfc_RLatLon0.03_PT006H.grib2 2026-05-07 06:07 1.3M
20260507T00Z_MSC_CAPS_RelativeHumidity_AGL-120m_RLatLon0.03_PT006H.grib2 2026-05-07 06:07 2.8M
20260507T00Z_MSC_CAPS_RelativeHumidity_AGL-2m_RLatLon0.03_PT006H.grib2 2026-05-07 06:07 3.0M
20260507T00Z_MSC_CAPS_RelativeHumidity_AGL-40m_RLatLon0.03_PT006H.grib2 2026-05-07 06:07 2.9M
20260507T00Z_MSC_CAPS_RelativeHumidity_AGL-80m_RLatLon0.03_PT006H.grib2 2026-05-07 06:07 2.8M
20260507T00Z_MSC_CAPS_RelativeHumidity_IsbL-0050_RLatLon0.03_PT006H.grib2 2026-05-07 06:07 948K
20260507T00Z_MSC_CAPS_RelativeHumidity_IsbL-0100_RLatLon0.03_PT006H.grib2 2026-05-07 06:07 1.0M
20260507T00Z_MSC_CAPS_RelativeHumidity_IsbL-0150_RLatLon0.03_PT006H.grib2 2026-05-07 06:07 457K
20260507T00Z_MSC_CAPS_RelativeHumidity_IsbL-0175_RLatLon0.03_PT006H.grib2 2026-05-07 06:07 456K
20260507T00Z_MSC_CAPS_RelativeHumidity_IsbL-0200_RLatLon0.03_PT006H.grib2 2026-05-07 06:07 641K
20260507T00Z_MSC_CAPS_RelativeHumidity_IsbL-0225_RLatLon0.03_PT006H.grib2 2026-05-07 06:07 873K
20260507T00Z_MSC_CAPS_RelativeHumidity_IsbL-0250_RLatLon0.03_PT006H.grib2 2026-05-07 06:07 1.1M
20260507T00Z_MSC_CAPS_RelativeHumidity_IsbL-0275_RLatLon0.03_PT006H.grib2 2026-05-07 06:07 1.3M
20260507T00Z_MSC_CAPS_RelativeHumidity_IsbL-0300_RLatLon0.03_PT006H.grib2 2026-05-07 06:07 1.7M
20260507T00Z_MSC_CAPS_RelativeHumidity_IsbL-0350_RLatLon0.03_PT006H.grib2 2026-05-07 06:07 1.9M
20260507T00Z_MSC_CAPS_RelativeHumidity_IsbL-0400_RLatLon0.03_PT006H.grib2 2026-05-07 06:07 2.0M
20260507T00Z_MSC_CAPS_RelativeHumidity_IsbL-0450_RLatLon0.03_PT006H.grib2 2026-05-07 06:07 1.9M
20260507T00Z_MSC_CAPS_RelativeHumidity_IsbL-0500_RLatLon0.03_PT006H.grib2 2026-05-07 06:07 2.0M
20260507T00Z_MSC_CAPS_RelativeHumidity_IsbL-0550_RLatLon0.03_PT006H.grib2 2026-05-07 06:07 2.0M
20260507T00Z_MSC_CAPS_RelativeHumidity_IsbL-0600_RLatLon0.03_PT006H.grib2 2026-05-07 06:07 2.0M
20260507T00Z_MSC_CAPS_RelativeHumidity_IsbL-0650_RLatLon0.03_PT006H.grib2 2026-05-07 06:07 2.2M
20260507T00Z_MSC_CAPS_RelativeHumidity_IsbL-0700_RLatLon0.03_PT006H.grib2 2026-05-07 06:07 2.2M
20260507T00Z_MSC_CAPS_RelativeHumidity_IsbL-0750_RLatLon0.03_PT006H.grib2 2026-05-07 06:07 2.3M
20260507T00Z_MSC_CAPS_RelativeHumidity_IsbL-0800_RLatLon0.03_PT006H.grib2 2026-05-07 06:07 2.4M
20260507T00Z_MSC_CAPS_RelativeHumidity_IsbL-0850_RLatLon0.03_PT006H.grib2 2026-05-07 06:07 2.5M
20260507T00Z_MSC_CAPS_RelativeHumidity_IsbL-0875_RLatLon0.03_PT006H.grib2 2026-05-07 06:07 2.5M
20260507T00Z_MSC_CAPS_RelativeHumidity_IsbL-0900_RLatLon0.03_PT006H.grib2 2026-05-07 06:07 2.7M
20260507T00Z_MSC_CAPS_RelativeHumidity_IsbL-0925_RLatLon0.03_PT006H.grib2 2026-05-07 06:07 2.7M
20260507T00Z_MSC_CAPS_RelativeHumidity_IsbL-0950_RLatLon0.03_PT006H.grib2 2026-05-07 06:07 2.8M
20260507T00Z_MSC_CAPS_RelativeHumidity_IsbL-0970_RLatLon0.03_PT006H.grib2 2026-05-07 06:07 2.9M
20260507T00Z_MSC_CAPS_RelativeHumidity_IsbL-0985_RLatLon0.03_PT006H.grib2 2026-05-07 06:07 2.9M
20260507T00Z_MSC_CAPS_RelativeHumidity_IsbL-1000_RLatLon0.03_PT006H.grib2 2026-05-07 06:07 2.9M
20260507T00Z_MSC_CAPS_RelativeHumidity_IsbL-1015_RLatLon0.03_PT006H.grib2 2026-05-07 06:07 2.9M
20260507T00Z_MSC_CAPS_Runoff-Accum_Sfc_RLatLon0.03_PT006H.grib2 2026-05-07 06:07 276K
20260507T00Z_MSC_CAPS_SeaIceAreaFraction_Sfc_RLatLon0.03_PT006H.nc 2026-05-07 06:12 15M
20260507T00Z_MSC_CAPS_SeaIceCompressiveStrength_Sfc_RLatLon0.03_PT006H.nc 2026-05-07 06:12 15M
20260507T00Z_MSC_CAPS_SeaIceDivergence_Sfc_RLatLon0.03_PT006H.nc 2026-05-07 06:12 15M
20260507T00Z_MSC_CAPS_SeaIceInternalPressure_Sfc_RLatLon0.03_PT006H.nc 2026-05-07 06:12 15M
20260507T00Z_MSC_CAPS_SeaIceShear_Sfc_RLatLon0.03_PT006H.nc 2026-05-07 06:12 15M
20260507T00Z_MSC_CAPS_SeaIceSnowTemp_Sfc_RLatLon0.03_PT006H.nc 2026-05-07 06:12 14M
20260507T00Z_MSC_CAPS_SeaIceSnowVolume_Sfc_RLatLon0.03_PT006H.nc 2026-05-07 06:12 15M
20260507T00Z_MSC_CAPS_SeaIceVelocityX_Sfc_RLatLon0.03_PT006H.nc 2026-05-07 06:12 15M
20260507T00Z_MSC_CAPS_SeaIceVelocityY_Sfc_RLatLon0.03_PT006H.nc 2026-05-07 06:12 15M
20260507T00Z_MSC_CAPS_SeaIceVolume_Sfc_RLatLon0.03_PT006H.nc 2026-05-07 06:12 15M
20260507T00Z_MSC_CAPS_SeaSurfaceHeight_Sfc_RLatLon0.03_PT006H.nc 2026-05-07 06:12 16M
20260507T00Z_MSC_CAPS_SeaWaterSalinity_DBS-0.5m_RLatLon0.03_PT006H.nc 2026-05-07 06:12 16M
20260507T00Z_MSC_CAPS_SeaWaterSalinity_DBS-all_RLatLon0.03_PT006H.nc 2026-05-07 06:12 107M
20260507T00Z_MSC_CAPS_SeaWaterTemp_DBS-0.5m_RLatLon0.03_PT006H.nc 2026-05-07 06:12 15M
20260507T00Z_MSC_CAPS_SeaWaterTemp_DBS-all_RLatLon0.03_PT006H.nc 2026-05-07 06:12 88M
20260507T00Z_MSC_CAPS_SeaWaterVelocityX_DBS-0.5m_RLatLon0.03_PT006H.nc 2026-05-07 06:12 18M
20260507T00Z_MSC_CAPS_SeaWaterVelocityX_DBS-all_RLatLon0.03_PT006H.nc 2026-05-07 06:12 210M
20260507T00Z_MSC_CAPS_SeaWaterVelocityY_DBS-0.5m_RLatLon0.03_PT006H.nc 2026-05-07 06:12 18M
20260507T00Z_MSC_CAPS_SeaWaterVelocityY_DBS-all_RLatLon0.03_PT006H.nc 2026-05-07 06:12 217M
20260507T00Z_MSC_CAPS_SensibleHeatNetFlux_Sfc_RLatLon0.03_PT006H.grib2 2026-05-07 06:07 2.0M
20260507T00Z_MSC_CAPS_ShowalterIndex_IsbL-0500_RLatLon0.03_PT006H.grib2 2026-05-07 06:07 4.3M
20260507T00Z_MSC_CAPS_Snow-Accum_Sfc_RLatLon0.03_PT006H.grib2 2026-05-07 06:07 2.4M
20260507T00Z_MSC_CAPS_SnowDensity_Sfc_RLatLon0.03_PT006H.grib2 2026-05-07 06:07 1.2M
20260507T00Z_MSC_CAPS_SnowDepthWaterEquivalent_Sfc_RLatLon0.03_PT006H.grib2 2026-05-07 06:07 641K
20260507T00Z_MSC_CAPS_SnowDepth_Sfc_RLatLon0.03_PT006H.grib2 2026-05-07 06:07 1.1M
20260507T00Z_MSC_CAPS_SoilTemp_DBS-0to10cm_RLatLon0.03_PT006H.grib2 2026-05-07 06:07 1.3M
20260507T00Z_MSC_CAPS_SoilTemp_Sfc_RLatLon0.03_PT006H.grib2 2026-05-07 06:07 1.9M
20260507T00Z_MSC_CAPS_SoilVolumetricIceContent_Sfc_RLatLon0.03_PT006H.grib2 2026-05-07 06:07 1.3M
20260507T00Z_MSC_CAPS_SoilVolumetricWaterContent_DBS-0to10cm_RLatLon0.03_PT006H.grib2 2026-05-07 06:07 1.3M
20260507T00Z_MSC_CAPS_SoilVolumetricWaterContent_DBS-0to1cm_RLatLon0.03_PT006H.grib2 2026-05-07 06:07 1.7M
20260507T00Z_MSC_CAPS_SpecificHumidity_AGL-120m_RLatLon0.03_PT006H.grib2 2026-05-07 06:07 1.8M
20260507T00Z_MSC_CAPS_SpecificHumidity_AGL-2m_RLatLon0.03_PT006H.grib2 2026-05-07 06:07 1.8M
20260507T00Z_MSC_CAPS_SpecificHumidity_AGL-40m_RLatLon0.03_PT006H.grib2 2026-05-07 06:07 1.9M
20260507T00Z_MSC_CAPS_SpecificHumidity_AGL-80m_RLatLon0.03_PT006H.grib2 2026-05-07 06:07 1.8M
20260507T00Z_MSC_CAPS_SpecificHumidity_IsbL-0050_RLatLon0.03_PT006H.grib2 2026-05-07 06:07 871K
20260507T00Z_MSC_CAPS_SpecificHumidity_IsbL-0100_RLatLon0.03_PT006H.grib2 2026-05-07 06:07 1.0M
20260507T00Z_MSC_CAPS_SpecificHumidity_IsbL-0150_RLatLon0.03_PT006H.grib2 2026-05-07 06:07 734K
20260507T00Z_MSC_CAPS_SpecificHumidity_IsbL-0175_RLatLon0.03_PT006H.grib2 2026-05-07 06:07 959K
20260507T00Z_MSC_CAPS_SpecificHumidity_IsbL-0200_RLatLon0.03_PT006H.grib2 2026-05-07 06:07 843K
20260507T00Z_MSC_CAPS_SpecificHumidity_IsbL-0225_RLatLon0.03_PT006H.grib2 2026-05-07 06:07 814K
20260507T00Z_MSC_CAPS_SpecificHumidity_IsbL-0250_RLatLon0.03_PT006H.grib2 2026-05-07 06:07 1.0M
20260507T00Z_MSC_CAPS_SpecificHumidity_IsbL-0275_RLatLon0.03_PT006H.grib2 2026-05-07 06:07 1.0M
20260507T00Z_MSC_CAPS_SpecificHumidity_IsbL-0300_RLatLon0.03_PT006H.grib2 2026-05-07 06:07 1.0M
20260507T00Z_MSC_CAPS_SpecificHumidity_IsbL-0350_RLatLon0.03_PT006H.grib2 2026-05-07 06:07 957K
20260507T00Z_MSC_CAPS_SpecificHumidity_IsbL-0400_RLatLon0.03_PT006H.grib2 2026-05-07 06:07 954K
20260507T00Z_MSC_CAPS_SpecificHumidity_IsbL-0450_RLatLon0.03_PT006H.grib2 2026-05-07 06:07 1.1M
20260507T00Z_MSC_CAPS_SpecificHumidity_IsbL-0500_RLatLon0.03_PT006H.grib2 2026-05-07 06:07 1.0M
20260507T00Z_MSC_CAPS_SpecificHumidity_IsbL-0550_RLatLon0.03_PT006H.grib2 2026-05-07 06:07 1.1M
20260507T00Z_MSC_CAPS_SpecificHumidity_IsbL-0600_RLatLon0.03_PT006H.grib2 2026-05-07 06:07 1.3M
20260507T00Z_MSC_CAPS_SpecificHumidity_IsbL-0650_RLatLon0.03_PT006H.grib2 2026-05-07 06:07 1.5M
20260507T00Z_MSC_CAPS_SpecificHumidity_IsbL-0700_RLatLon0.03_PT006H.grib2 2026-05-07 06:07 1.6M
20260507T00Z_MSC_CAPS_SpecificHumidity_IsbL-0750_RLatLon0.03_PT006H.grib2 2026-05-07 06:07 1.4M
20260507T00Z_MSC_CAPS_SpecificHumidity_IsbL-0800_RLatLon0.03_PT006H.grib2 2026-05-07 06:07 1.5M
20260507T00Z_MSC_CAPS_SpecificHumidity_IsbL-0850_RLatLon0.03_PT006H.grib2 2026-05-07 06:07 1.6M
20260507T00Z_MSC_CAPS_SpecificHumidity_IsbL-0875_RLatLon0.03_PT006H.grib2 2026-05-07 06:07 1.7M
20260507T00Z_MSC_CAPS_SpecificHumidity_IsbL-0900_RLatLon0.03_PT006H.grib2 2026-05-07 06:07 1.9M
20260507T00Z_MSC_CAPS_SpecificHumidity_IsbL-0925_RLatLon0.03_PT006H.grib2 2026-05-07 06:07 1.9M
20260507T00Z_MSC_CAPS_SpecificHumidity_IsbL-0950_RLatLon0.03_PT006H.grib2 2026-05-07 06:07 2.0M
20260507T00Z_MSC_CAPS_SpecificHumidity_IsbL-0970_RLatLon0.03_PT006H.grib2 2026-05-07 06:07 2.0M
20260507T00Z_MSC_CAPS_SpecificHumidity_IsbL-0985_RLatLon0.03_PT006H.grib2 2026-05-07 06:07 1.7M
20260507T00Z_MSC_CAPS_SpecificHumidity_IsbL-1000_RLatLon0.03_PT006H.grib2 2026-05-07 06:07 1.7M
20260507T00Z_MSC_CAPS_SpecificHumidity_IsbL-1015_RLatLon0.03_PT006H.grib2 2026-05-07 06:07 1.8M
20260507T00Z_MSC_CAPS_SpecificHumidity_Sfc_RLatLon0.03_PT006H.grib2 2026-05-07 06:07 2.1M
20260507T00Z_MSC_CAPS_StormRelativeHelicity_Sfc_RLatLon0.03_PT006H.grib2 2026-05-07 06:07 3.1M
20260507T00Z_MSC_CAPS_Thickness_IsbL-1000to0500_RLatLon0.03_PT006H.grib2 2026-05-07 06:07 410K
20260507T00Z_MSC_CAPS_TotalCloudCover_Sfc_RLatLon0.03_PT006H.grib2 2026-05-07 06:07 3.6M
20260507T00Z_MSC_CAPS_TurboclineDepth_Sfc_RLatLon0.03_PT006H.nc 2026-05-07 06:12 16M
20260507T00Z_MSC_CAPS_UpwardLongwaveRadiationFlux_NTAtm_RLatLon0.03_PT006H.grib2 2026-05-07 06:07 2.9M
20260507T00Z_MSC_CAPS_UpwardShortwaveRadiationFlux_NTAtm_RLatLon0.03_PT006H.grib2 2026-05-07 06:07 1.8M
20260507T00Z_MSC_CAPS_VerticalVelocity_IsbL-0250_RLatLon0.03_PT006H.grib2 2026-05-07 06:07 919K
20260507T00Z_MSC_CAPS_VerticalVelocity_IsbL-0500_RLatLon0.03_PT006H.grib2 2026-05-07 06:07 1.0M
20260507T00Z_MSC_CAPS_VerticalVelocity_IsbL-0700_RLatLon0.03_PT006H.grib2 2026-05-07 06:07 961K
20260507T00Z_MSC_CAPS_VerticalVelocity_IsbL-0850_RLatLon0.03_PT006H.grib2 2026-05-07 06:07 1.4M
20260507T00Z_MSC_CAPS_VerticalVelocity_IsbL-1000_RLatLon0.03_PT006H.grib2 2026-05-07 06:07 1.3M
20260507T00Z_MSC_CAPS_WindDir_AGL-10m_RLatLon0.03_PT006H.grib2 2026-05-07 06:07 2.4M
20260507T00Z_MSC_CAPS_WindDir_AGL-120m_RLatLon0.03_PT006H.grib2 2026-05-07 06:07 1.2M
20260507T00Z_MSC_CAPS_WindDir_AGL-40m_RLatLon0.03_PT006H.grib2 2026-05-07 06:07 1.4M
20260507T00Z_MSC_CAPS_WindDir_AGL-80m_RLatLon0.03_PT006H.grib2 2026-05-07 06:07 1.3M
20260507T00Z_MSC_CAPS_WindDir_IsbL-0050_RLatLon0.03_PT006H.grib2 2026-05-07 06:07 1.1M
20260507T00Z_MSC_CAPS_WindDir_IsbL-0100_RLatLon0.03_PT006H.grib2 2026-05-07 06:07 1.1M
20260507T00Z_MSC_CAPS_WindDir_IsbL-0150_RLatLon0.03_PT006H.grib2 2026-05-07 06:07 1.0M
20260507T00Z_MSC_CAPS_WindDir_IsbL-0175_RLatLon0.03_PT006H.grib2 2026-05-07 06:07 1.0M
20260507T00Z_MSC_CAPS_WindDir_IsbL-0200_RLatLon0.03_PT006H.grib2 2026-05-07 06:07 1.1M
20260507T00Z_MSC_CAPS_WindDir_IsbL-0225_RLatLon0.03_PT006H.grib2 2026-05-07 06:07 1.1M
20260507T00Z_MSC_CAPS_WindDir_IsbL-0250_RLatLon0.03_PT006H.grib2 2026-05-07 06:07 1.1M
20260507T00Z_MSC_CAPS_WindDir_IsbL-0275_RLatLon0.03_PT006H.grib2 2026-05-07 06:07 1.1M
20260507T00Z_MSC_CAPS_WindDir_IsbL-0300_RLatLon0.03_PT006H.grib2 2026-05-07 06:07 1.1M
20260507T00Z_MSC_CAPS_WindDir_IsbL-0350_RLatLon0.03_PT006H.grib2 2026-05-07 06:07 1.1M
20260507T00Z_MSC_CAPS_WindDir_IsbL-0400_RLatLon0.03_PT006H.grib2 2026-05-07 06:07 1.2M
20260507T00Z_MSC_CAPS_WindDir_IsbL-0450_RLatLon0.03_PT006H.grib2 2026-05-07 06:07 1.2M
20260507T00Z_MSC_CAPS_WindDir_IsbL-0500_RLatLon0.03_PT006H.grib2 2026-05-07 06:07 1.2M
20260507T00Z_MSC_CAPS_WindDir_IsbL-0550_RLatLon0.03_PT006H.grib2 2026-05-07 06:07 1.2M
20260507T00Z_MSC_CAPS_WindDir_IsbL-0600_RLatLon0.03_PT006H.grib2 2026-05-07 06:07 1.3M
20260507T00Z_MSC_CAPS_WindDir_IsbL-0650_RLatLon0.03_PT006H.grib2 2026-05-07 06:07 1.3M
20260507T00Z_MSC_CAPS_WindDir_IsbL-0700_RLatLon0.03_PT006H.grib2 2026-05-07 06:07 1.5M
20260507T00Z_MSC_CAPS_WindDir_IsbL-0750_RLatLon0.03_PT006H.grib2 2026-05-07 06:07 1.6M
20260507T00Z_MSC_CAPS_WindDir_IsbL-0800_RLatLon0.03_PT006H.grib2 2026-05-07 06:07 1.7M
20260507T00Z_MSC_CAPS_WindDir_IsbL-0850_RLatLon0.03_PT006H.grib2 2026-05-07 06:07 1.8M
20260507T00Z_MSC_CAPS_WindDir_IsbL-0875_RLatLon0.03_PT006H.grib2 2026-05-07 06:07 1.9M
20260507T00Z_MSC_CAPS_WindDir_IsbL-0900_RLatLon0.03_PT006H.grib2 2026-05-07 06:07 1.9M
20260507T00Z_MSC_CAPS_WindDir_IsbL-0925_RLatLon0.03_PT006H.grib2 2026-05-07 06:07 2.0M
20260507T00Z_MSC_CAPS_WindDir_IsbL-0950_RLatLon0.03_PT006H.grib2 2026-05-07 06:07 2.1M
20260507T00Z_MSC_CAPS_WindDir_IsbL-0970_RLatLon0.03_PT006H.grib2 2026-05-07 06:07 2.1M
20260507T00Z_MSC_CAPS_WindDir_IsbL-0985_RLatLon0.03_PT006H.grib2 2026-05-07 06:07 2.2M
20260507T00Z_MSC_CAPS_WindDir_IsbL-1000_RLatLon0.03_PT006H.grib2 2026-05-07 06:07 2.3M
20260507T00Z_MSC_CAPS_WindDir_IsbL-1015_RLatLon0.03_PT006H.grib2 2026-05-07 06:07 2.4M
20260507T00Z_MSC_CAPS_WindGust-Max_AGL-10m_RLatLon0.03_PT006H.grib2 2026-05-07 06:07 2.5M
20260507T00Z_MSC_CAPS_WindGust-Min_AGL-10m_RLatLon0.03_PT006H.grib2 2026-05-07 06:07 2.3M
20260507T00Z_MSC_CAPS_WindGust_AGL-10m_RLatLon0.03_PT006H.grib2 2026-05-07 06:07 2.4M
20260507T00Z_MSC_CAPS_WindSpeed_AGL-10m_RLatLon0.03_PT006H.grib2 2026-05-07 06:07 2.1M
20260507T00Z_MSC_CAPS_WindSpeed_AGL-120m_RLatLon0.03_PT006H.grib2 2026-05-07 06:07 1.1M
20260507T00Z_MSC_CAPS_WindSpeed_AGL-40m_RLatLon0.03_PT006H.grib2 2026-05-07 06:07 1.5M
20260507T00Z_MSC_CAPS_WindSpeed_AGL-80m_RLatLon0.03_PT006H.grib2 2026-05-07 06:07 1.1M
20260507T00Z_MSC_CAPS_WindSpeed_IsbL-0050_RLatLon0.03_PT006H.grib2 2026-05-07 06:07 948K
20260507T00Z_MSC_CAPS_WindSpeed_IsbL-0100_RLatLon0.03_PT006H.grib2 2026-05-07 06:07 1.3M
20260507T00Z_MSC_CAPS_WindSpeed_IsbL-0150_RLatLon0.03_PT006H.grib2 2026-05-07 06:07 1.0M
20260507T00Z_MSC_CAPS_WindSpeed_IsbL-0175_RLatLon0.03_PT006H.grib2 2026-05-07 06:07 1.1M
20260507T00Z_MSC_CAPS_WindSpeed_IsbL-0200_RLatLon0.03_PT006H.grib2 2026-05-07 06:07 1.2M
20260507T00Z_MSC_CAPS_WindSpeed_IsbL-0225_RLatLon0.03_PT006H.grib2 2026-05-07 06:07 1.3M
20260507T00Z_MSC_CAPS_WindSpeed_IsbL-0250_RLatLon0.03_PT006H.grib2 2026-05-07 06:07 1.0M
20260507T00Z_MSC_CAPS_WindSpeed_IsbL-0275_RLatLon0.03_PT006H.grib2 2026-05-07 06:07 1.0M
20260507T00Z_MSC_CAPS_WindSpeed_IsbL-0300_RLatLon0.03_PT006H.grib2 2026-05-07 06:07 1.0M
20260507T00Z_MSC_CAPS_WindSpeed_IsbL-0350_RLatLon0.03_PT006H.grib2 2026-05-07 06:07 1.0M
20260507T00Z_MSC_CAPS_WindSpeed_IsbL-0400_RLatLon0.03_PT006H.grib2 2026-05-07 06:07 1.3M
20260507T00Z_MSC_CAPS_WindSpeed_IsbL-0450_RLatLon0.03_PT006H.grib2 2026-05-07 06:07 1.3M
20260507T00Z_MSC_CAPS_WindSpeed_IsbL-0500_RLatLon0.03_PT006H.grib2 2026-05-07 06:07 1.3M
20260507T00Z_MSC_CAPS_WindSpeed_IsbL-0550_RLatLon0.03_PT006H.grib2 2026-05-07 06:07 1.4M
20260507T00Z_MSC_CAPS_WindSpeed_IsbL-0600_RLatLon0.03_PT006H.grib2 2026-05-07 06:07 1.3M
20260507T00Z_MSC_CAPS_WindSpeed_IsbL-0650_RLatLon0.03_PT006H.grib2 2026-05-07 06:07 1.4M
20260507T00Z_MSC_CAPS_WindSpeed_IsbL-0700_RLatLon0.03_PT006H.grib2 2026-05-07 06:07 1.5M
20260507T00Z_MSC_CAPS_WindSpeed_IsbL-0750_RLatLon0.03_PT006H.grib2 2026-05-07 06:07 1.6M
20260507T00Z_MSC_CAPS_WindSpeed_IsbL-0800_RLatLon0.03_PT006H.grib2 2026-05-07 06:07 1.7M
20260507T00Z_MSC_CAPS_WindSpeed_IsbL-0850_RLatLon0.03_PT006H.grib2 2026-05-07 06:07 1.7M
20260507T00Z_MSC_CAPS_WindSpeed_IsbL-0875_RLatLon0.03_PT006H.grib2 2026-05-07 06:07 1.8M
20260507T00Z_MSC_CAPS_WindSpeed_IsbL-0900_RLatLon0.03_PT006H.grib2 2026-05-07 06:07 1.8M
20260507T00Z_MSC_CAPS_WindSpeed_IsbL-0925_RLatLon0.03_PT006H.grib2 2026-05-07 06:07 1.9M
20260507T00Z_MSC_CAPS_WindSpeed_IsbL-0950_RLatLon0.03_PT006H.grib2 2026-05-07 06:07 1.9M
20260507T00Z_MSC_CAPS_WindSpeed_IsbL-0970_RLatLon0.03_PT006H.grib2 2026-05-07 06:07 2.0M
20260507T00Z_MSC_CAPS_WindSpeed_IsbL-0985_RLatLon0.03_PT006H.grib2 2026-05-07 06:07 2.0M
20260507T00Z_MSC_CAPS_WindSpeed_IsbL-1000_RLatLon0.03_PT006H.grib2 2026-05-07 06:07 2.0M
20260507T00Z_MSC_CAPS_WindSpeed_IsbL-1015_RLatLon0.03_PT006H.grib2 2026-05-07 06:07 2.1M
20260507T00Z_MSC_CAPS_WindU_AGL-10m_RLatLon0.03_PT006H.grib2 2026-05-07 06:07 1.9M
20260507T00Z_MSC_CAPS_WindU_AGL-120m_RLatLon0.03_PT006H.grib2 2026-05-07 06:07 887K
20260507T00Z_MSC_CAPS_WindU_AGL-40m_RLatLon0.03_PT006H.grib2 2026-05-07 06:07 1.2M
20260507T00Z_MSC_CAPS_WindU_AGL-80m_RLatLon0.03_PT006H.grib2 2026-05-07 06:07 894K
20260507T00Z_MSC_CAPS_WindU_IsbL-0050_RLatLon0.03_PT006H.grib2 2026-05-07 06:07 718K
20260507T00Z_MSC_CAPS_WindU_IsbL-0100_RLatLon0.03_PT006H.grib2 2026-05-07 06:07 954K
20260507T00Z_MSC_CAPS_WindU_IsbL-0150_RLatLon0.03_PT006H.grib2 2026-05-07 06:07 920K
20260507T00Z_MSC_CAPS_WindU_IsbL-0175_RLatLon0.03_PT006H.grib2 2026-05-07 06:07 734K
20260507T00Z_MSC_CAPS_WindU_IsbL-0200_RLatLon0.03_PT006H.grib2 2026-05-07 06:07 759K
20260507T00Z_MSC_CAPS_WindU_IsbL-0225_RLatLon0.03_PT006H.grib2 2026-05-07 06:07 904K
20260507T00Z_MSC_CAPS_WindU_IsbL-0250_RLatLon0.03_PT006H.grib2 2026-05-07 06:07 920K
20260507T00Z_MSC_CAPS_WindU_IsbL-0275_RLatLon0.03_PT006H.grib2 2026-05-07 06:07 715K
20260507T00Z_MSC_CAPS_WindU_IsbL-0300_RLatLon0.03_PT006H.grib2 2026-05-07 06:07 721K
20260507T00Z_MSC_CAPS_WindU_IsbL-0350_RLatLon0.03_PT006H.grib2 2026-05-07 06:07 949K
20260507T00Z_MSC_CAPS_WindU_IsbL-0400_RLatLon0.03_PT006H.grib2 2026-05-07 06:07 954K
20260507T00Z_MSC_CAPS_WindU_IsbL-0450_RLatLon0.03_PT006H.grib2 2026-05-07 06:07 964K
20260507T00Z_MSC_CAPS_WindU_IsbL-0500_RLatLon0.03_PT006H.grib2 2026-05-07 06:07 865K
20260507T00Z_MSC_CAPS_WindU_IsbL-0550_RLatLon0.03_PT006H.grib2 2026-05-07 06:07 897K
20260507T00Z_MSC_CAPS_WindU_IsbL-0600_RLatLon0.03_PT006H.grib2 2026-05-07 06:07 927K
20260507T00Z_MSC_CAPS_WindU_IsbL-0650_RLatLon0.03_PT006H.grib2 2026-05-07 06:07 965K
20260507T00Z_MSC_CAPS_WindU_IsbL-0700_RLatLon0.03_PT006H.grib2 2026-05-07 06:07 1.0M
20260507T00Z_MSC_CAPS_WindU_IsbL-0750_RLatLon0.03_PT006H.grib2 2026-05-07 06:07 1.1M
20260507T00Z_MSC_CAPS_WindU_IsbL-0800_RLatLon0.03_PT006H.grib2 2026-05-07 06:07 1.1M
20260507T00Z_MSC_CAPS_WindU_IsbL-0850_RLatLon0.03_PT006H.grib2 2026-05-07 06:07 1.2M
20260507T00Z_MSC_CAPS_WindU_IsbL-0875_RLatLon0.03_PT006H.grib2 2026-05-07 06:07 1.2M
20260507T00Z_MSC_CAPS_WindU_IsbL-0900_RLatLon0.03_PT006H.grib2 2026-05-07 06:07 1.3M
20260507T00Z_MSC_CAPS_WindU_IsbL-0925_RLatLon0.03_PT006H.grib2 2026-05-07 06:07 1.3M
20260507T00Z_MSC_CAPS_WindU_IsbL-0950_RLatLon0.03_PT006H.grib2 2026-05-07 06:07 1.4M
20260507T00Z_MSC_CAPS_WindU_IsbL-0970_RLatLon0.03_PT006H.grib2 2026-05-07 06:07 1.4M
20260507T00Z_MSC_CAPS_WindU_IsbL-0985_RLatLon0.03_PT006H.grib2 2026-05-07 06:07 1.4M
20260507T00Z_MSC_CAPS_WindU_IsbL-1000_RLatLon0.03_PT006H.grib2 2026-05-07 06:07 1.5M
20260507T00Z_MSC_CAPS_WindU_IsbL-1015_RLatLon0.03_PT006H.grib2 2026-05-07 06:07 1.9M
20260507T00Z_MSC_CAPS_WindV_AGL-10m_RLatLon0.03_PT006H.grib2 2026-05-07 06:07 2.0M
20260507T00Z_MSC_CAPS_WindV_AGL-120m_RLatLon0.03_PT006H.grib2 2026-05-07 06:07 1.1M
20260507T00Z_MSC_CAPS_WindV_AGL-40m_RLatLon0.03_PT006H.grib2 2026-05-07 06:07 1.2M
20260507T00Z_MSC_CAPS_WindV_AGL-80m_RLatLon0.03_PT006H.grib2 2026-05-07 06:07 1.2M
20260507T00Z_MSC_CAPS_WindV_IsbL-0050_RLatLon0.03_PT006H.grib2 2026-05-07 06:07 765K
20260507T00Z_MSC_CAPS_WindV_IsbL-0100_RLatLon0.03_PT006H.grib2 2026-05-07 06:07 782K
20260507T00Z_MSC_CAPS_WindV_IsbL-0150_RLatLon0.03_PT006H.grib2 2026-05-07 06:07 911K
20260507T00Z_MSC_CAPS_WindV_IsbL-0175_RLatLon0.03_PT006H.grib2 2026-05-07 06:07 723K
20260507T00Z_MSC_CAPS_WindV_IsbL-0200_RLatLon0.03_PT006H.grib2 2026-05-07 06:07 875K
20260507T00Z_MSC_CAPS_WindV_IsbL-0225_RLatLon0.03_PT006H.grib2 2026-05-07 06:07 895K
20260507T00Z_MSC_CAPS_WindV_IsbL-0250_RLatLon0.03_PT006H.grib2 2026-05-07 06:07 915K
20260507T00Z_MSC_CAPS_WindV_IsbL-0275_RLatLon0.03_PT006H.grib2 2026-05-07 06:07 921K
20260507T00Z_MSC_CAPS_WindV_IsbL-0300_RLatLon0.03_PT006H.grib2 2026-05-07 06:07 929K
20260507T00Z_MSC_CAPS_WindV_IsbL-0350_RLatLon0.03_PT006H.grib2 2026-05-07 06:07 946K
20260507T00Z_MSC_CAPS_WindV_IsbL-0400_RLatLon0.03_PT006H.grib2 2026-05-07 06:07 952K
20260507T00Z_MSC_CAPS_WindV_IsbL-0450_RLatLon0.03_PT006H.grib2 2026-05-07 06:07 962K
20260507T00Z_MSC_CAPS_WindV_IsbL-0500_RLatLon0.03_PT006H.grib2 2026-05-07 06:07 860K
20260507T00Z_MSC_CAPS_WindV_IsbL-0550_RLatLon0.03_PT006H.grib2 2026-05-07 06:07 891K
20260507T00Z_MSC_CAPS_WindV_IsbL-0600_RLatLon0.03_PT006H.grib2 2026-05-07 06:07 920K
20260507T00Z_MSC_CAPS_WindV_IsbL-0650_RLatLon0.03_PT006H.grib2 2026-05-07 06:07 958K
20260507T00Z_MSC_CAPS_WindV_IsbL-0700_RLatLon0.03_PT006H.grib2 2026-05-07 06:07 1.0M
20260507T00Z_MSC_CAPS_WindV_IsbL-0750_RLatLon0.03_PT006H.grib2 2026-05-07 06:07 1.1M
20260507T00Z_MSC_CAPS_WindV_IsbL-0800_RLatLon0.03_PT006H.grib2 2026-05-07 06:07 1.1M
20260507T00Z_MSC_CAPS_WindV_IsbL-0850_RLatLon0.03_PT006H.grib2 2026-05-07 06:07 1.2M
20260507T00Z_MSC_CAPS_WindV_IsbL-0875_RLatLon0.03_PT006H.grib2 2026-05-07 06:07 1.2M
20260507T00Z_MSC_CAPS_WindV_IsbL-0900_RLatLon0.03_PT006H.grib2 2026-05-07 06:07 1.3M
20260507T00Z_MSC_CAPS_WindV_IsbL-0925_RLatLon0.03_PT006H.grib2 2026-05-07 06:07 1.3M
20260507T00Z_MSC_CAPS_WindV_IsbL-0950_RLatLon0.03_PT006H.grib2 2026-05-07 06:07 1.7M
20260507T00Z_MSC_CAPS_WindV_IsbL-0970_RLatLon0.03_PT006H.grib2 2026-05-07 06:07 1.7M
20260507T00Z_MSC_CAPS_WindV_IsbL-0985_RLatLon0.03_PT006H.grib2 2026-05-07 06:07 1.8M
20260507T00Z_MSC_CAPS_WindV_IsbL-1000_RLatLon0.03_PT006H.grib2 2026-05-07 06:07 1.9M
20260507T00Z_MSC_CAPS_WindV_IsbL-1015_RLatLon0.03_PT006H.grib2 2026-05-07 06:07 2.0M